sat.trackr.live / text

‹ back to catalog

STARLINK-30952

NORAD 58405 · 2023-180D

PAYLOAD ACTIVE UNKNOWN

§ Identity

Operator
Country
US
Launch date
2023-11-22
Launch site
AFETR
Launch vehicle
Mass (kg)
RCS (m²)

Purposes: comms

External: N2YO · Heavens-Above · Gunter

§ Orbital elements

Epoch: 2026-09-20T01:50:04.394400Z

Period
94.27 min
Inclination
43.0029°
Eccentricity
0.0001582
Mean motion
15.27577549 rev/d
Perigee alt
482.0 km
Apogee alt
484.1 km
Semi-major
6,861.2 km
B*
-7.2478e-6
RAAN
34.8716°
Arg perigee
271.2497°
Mean anomaly
88.8174°
Rev number
15,724

§ Raw data

STARLINK-309521 58405U 23180D   26263.07643975 -.00000462  00000+0 -72478-5 0  99922 58405  43.0029  34.8716 0001582 271.2497  88.8174 15.27577549157246

JSON: /api/v1/satellites/58405 · /tle

For live sub-satellite position, see the globe view (requires WebGL).

§ Visibility from observer

Set your observer location to see the next 7 days of passes ≥ 10°. The values pass through the URL so the page stays shareable.

No JS? Fill the form by hand. The geolocation button needs JavaScript.